Content
SEND FEEDBACK

Daily
Averages
Monthly
Summary
United States of America

CAMPBELL, MISSOURI


Home > North America > United States > Missouri
Elevation: 310 feet     Latitude: 36 29N     Longitude: 090 04W

WEATHER
 
SELECT A DAY
Number of Records: 207,799;   Date Range: 1/1/95 - 8/28/14
 
SHARE

PRINT THIS DATA

[ ← Previous Day ]
WEATHER ALMANAC - JANUARY 30, 2013
[ Next Day → ]
[ °C ]   °F
Weather ElementAverageHighLow
Temperature47.4 °F55 °F (8:53 am)33.1 °F (11:53 pm)
Dewpoint39.5 °F52 °F (1:53 am)19 °F (11:53 pm)
Humidity75 %94 % (2:39 am)54 % (8:53 pm)
Barometer29.61 in30.01 in (11:53 pm)29.46 in (9:34 am)
Wind Speed14.2 mph25.3 mph (10:29 am)
Wind Gust35.7 mph (2:53 pm)
Weather ElementAverage
Visibility9.9 mi
Wind DirectionWSW (234.7 °)

Weather ElementTotal
Precipitation0.04 in
Heating Degree Days21 (Base 65)
Averaged from 34 records on January 30, 2013
WEATHER CONDITIONS BREAKOUT
WIND DIRECTION BREAKOUT
WEATHER BY HOUR - JANUARY 30, 2013
[ °C ]   °F
Local TimeTemperatureDewpointHumidityBarometerVisibilityWind DirectionWind SpeedGust SpeedPrecipitationEventsConditions
1:53 AM54.0 °F52.0 °F93 %29.53 in10.0 miCalm0.01 inRainLight Rain
2:39 AM53.6 °F51.8 °F94 %29.51 in10.0 miSSE (150°)6.9 mph0.00 inOvercast
2:53 AM54.0 °F52.0 °F93 %29.49 in10.0 miSE (140°)11.5 mph0.00 inOvercast
3:29 AM53.6 °F51.8 °F94 %29.47 in10.0 miSSE (160°)9.2 mphOvercast
3:53 AM54.0 °F52.0 °F93 %29.49 in10.0 miSouth (180°)8.1 mphOvercast
4:53 AM54.0 °F51.1 °F90 %29.50 in10.0 miSouth (180°)11.5 mphOvercast
5:53 AM54.0 °F51.1 °F90 %29.48 in10.0 miSouth (190°)9.2 mphOvercast
6:48 AM53.6 °F51.8 °F94 %29.49 in10.0 miSouth (190°)10.4 mphOvercast
6:53 AM54.0 °F51.1 °F90 %29.47 in10.0 miSSW (200°)9.2 mphOvercast
7:07 AM53.6 °F51.8 °F94 %29.47 in10.0 miSouth (190°)6.9 mphOvercast
7:35 AM53.6 °F51.8 °F94 %29.47 in10.0 miSSW (200°)8.1 mphMostly Cloudy
7:53 AM54.0 °F51.1 °F90 %29.47 in10.0 miSouth (190°)9.2 mphMostly Cloudy
8:02 AM53.6 °F51.8 °F94 %29.47 in10.0 miSSW (200°)10.4 mphMostly Cloudy
8:53 AM55.0 °F51.1 °F86 %29.47 in10.0 miSSW (210°)17.3 mphPartly Cloudy
9:34 AM53.6 °F48.2 °F82 %29.46 in5.0 miWSW (250°)9.2 mph21.9 mph0.01 inRainLight Rain
9:45 AM53.6 °F48.2 °F82 %29.48 in10.0 miWest (260°)10.4 mph0.01 inRainLight Rain
9:53 AM54.0 °F46.9 °F77 %29.48 in10.0 miWest (270°)16.1 mph21.9 mph0.01 inOvercast
10:29 AM51.8 °F42.8 °F71 %29.51 in10.0 miWest (280°)25.3 mph32.2 mphOvercast
10:53 AM48.9 °F39.0 °F69 %29.50 in10.0 miWNW (300°)24.2 mph34.5 mphOvercast
11:24 AM48.2 °F37.4 °F66 %29.55 in10.0 miWest (260°)17.3 mph27.6 mphOvercast
11:38 AM46.4 °F35.6 °F66 %29.54 in10.0 miWNW (290°)21.9 mph29.9 mphOvercast
11:53 AM46.0 °F35.1 °F66 %29.57 in10.0 miWest (280°)20.7 mph28.8 mphOvercast
12:53 PM46.9 °F32.0 °F56 %29.56 in10.0 miWest (270°)19.6 mph26.5 mphMostly Cloudy
1:53 PM44.1 °F30.0 °F58 %29.60 in10.0 miWNW (300°)24.2 mph34.5 mphOvercast
2:53 PM41.0 °F26.1 °F55 %29.65 in10.0 miWNW (300°)20.7 mph35.7 mphOvercast
3:53 PM39.0 °F25.0 °F57 %29.72 in10.0 miWNW (290°)19.6 mph31.1 mphOvercast
4:53 PM37.9 °F24.1 °F57 %29.78 in10.0 miWest (280°)19.6 mph26.5 mphOvercast
5:53 PM37.0 °F24.1 °F59 %29.81 in10.0 miWest (270°)18.4 mph28.8 mphOvercast
6:53 PM36.0 °F23.0 °F59 %29.86 in10.0 miWNW (290°)16.1 mph25.3 mphOvercast
7:53 PM36.0 °F23.0 °F59 %29.89 in10.0 miWNW (290°)13.8 mph25.3 mphOvercast
8:53 PM35.1 °F19.9 °F54 %29.93 in10.0 miWNW (290°)20.7 mph31.1 mphOvercast
9:53 PM35.1 °F21.0 °F57 %29.96 in10.0 miWNW (290°)15.0 mph20.7 mphOvercast
10:53 PM34.0 °F19.9 °F56 %29.98 in10.0 miWest (270°)15.0 mph26.5 mphOvercast
11:53 PM33.1 °F19.0 °F56 %30.01 in10.0 miWest (270°)8.1 mphMostly Cloudy
Hourly data recorded from KPOF, located miles away from Campbell, Missouri







STORIES FROM OUR PARTNERS